Location: New Frontier Mobile Home Park
(32.8448°N, 116.9675°W)
Time: 22:40:26
(UTC+00:00)

Meteor 2-2 Rocket - Pass Details

Date: 14 July 2020
Orbit: 852 x 929 km, 81.3° (Epoch: 05 August)

Event Time Altitude Azimuth Distance (km) Brightness Sun altitude
Rises 05:18:30 0° 349° (N) 3,464 8.4 -24.1°
Reaches altitude 10° 05:20:57 10° 348° (NNW) 2,513 7.5 -24.5°
Maximum altitude 05:26:37 75° 265° (W) 889 4.3 -25.2°
Enters shadow 05:27:52 54° 197° (SSW) 1,026 4.4 -25.4°
